Main page
METAR-TAF:

METAR-TAF

Airports :

Albert Whitted Airport

St. Petersburg, Florida, United States

latitude: 27-46-04N, longitude: 082-37-34W, elevation: 7 ft

Current weather observation

The report was made 45 minutes ago, at 07:53 UTC
Wind 14 mph from the Northeast
Temperature 81°F
Humidity 84%
Pressure 29.90 in. Hg
Visibility: 10 miles
Broken clouds at a height of 1300 ft
Overcast at a height of 2000 ft

METAR: KSPG 240753Z AUTO 05012KT 10SM BKN013 OVC020 27/24 A2990 RMK AO2 SLP124 T02670244

Time: 04:38 (08:38 UTC)


TAF: missing

Weather observations and forecasts of more than 4000 airports (METAR and TAF reports).

The available stations are represented by yellow and red dots on the map.

Hover mouse over dot to see the name of the station.

Then click to see weather observations and forecasts.

To change the map : click on the green buttons with a black cross to zoom in, on the green button with a dash to zoom out, or on the green arrows for adjacent maps.


METAR-TAF: